Location: Tucson
(32.2217°N, 110.9265°W)
Time: 04:40:03
(UTC-07:00)

Oscar 11 - Pass Details

Date: 04 December 2021
Orbit: 611 x 625 km, 97.6° (Epoch: 19 January)

Event Time Altitude Azimuth Distance (km) Brightness Sun altitude
Rises 06:04:36 0° 4° (N) 2,903 10.4 -13.6°
Reaches altitude 10° 06:06:52 10° 359° (N) 1,991 9.5 -13.1°
Maximum altitude 06:11:01 47° 285° (WNW) 821 7.3 -12.3°
Drops below altitude 10° 06:15:08 10° 212° (SSW) 1,971 9.5 -11.5°
Sets 06:17:21 0° 206° (SSW) 2,870 10.4 -11.0°
